This is the latest recevied weather packets stored in our database for station/object KD4MBW. If no packets are shown the sender has not sent any weather packets the latest 10 day(s).
| Time | Temp. | Humidity | Pressure | Rain* | Wind** | Luminosity | Snow |
|---|---|---|---|---|---|---|---|
| 1778194655 | 25° C | 99% | 1013.1 hPa | 0 mm | - | 71 W/m² | - |
| 1778194352 | 25° C | 99% | 1013.2 hPa | 0 mm | - | 72 W/m² | - |
| 1778194047 | 25° C | 99% | 1013.2 hPa | 0 mm | - | 63 W/m² | - |
| 1778193744 | 25.56° C | 99% | 1013 hPa | 0 mm | - | 55 W/m² | - |
| 1778193440 | 25.56° C | 99% | 1013 hPa | 0 mm | - | 93 W/m² | - |
| 1778193137 | 25° C | 99% | 1013.1 hPa | 1.78 mm | - | 116 W/m² | - |
| 1778192834 | 24.44° C | 99% | 1013.2 hPa | 1.78 mm | - | 139 W/m² | - |
| 1778192530 | 24.44° C | 99% | 1013 hPa | 0 mm | - | 150 W/m² | - |
| 1778192227 | 24.44° C | 99% | 1013 hPa | 0 mm | - | 208 W/m² | - |
| 1778191923 | 24.44° C | 99% | 1013.1 hPa | 0 mm | - | 243 W/m² | - |
| 1778191621 | 24.44° C | 99% | 1013.3 hPa | 0 mm | - | 171 W/m² | - |
| 1778191319 | 24.44° C | 99% | 1013.1 hPa | 0 mm | - | 291 W/m² | - |
| 1778191014 | 24.44° C | 99% | 1013.1 hPa | 0 mm | - | 171 W/m² | - |
| 1778190712 | 23.89° C | 99% | 1013 hPa | 0 mm | - | 127 W/m² | - |
| 1778190409 | 23.89° C | 99% | 1012.9 hPa | 0 mm | - | 89 W/m² | - |
| 1778190106 | 23.89° C | 99% | 1013 hPa | 1.27 mm | - | 40 W/m² | - |
| 1778189801 | 23.89° C | 99% | 1013.2 hPa | 1.27 mm | - | 25 W/m² | - |
| 1778189499 | 23.89° C | 99% | 1013.5 hPa | 0 mm | - | 16 W/m² | - |
| 1778189195 | 23.89° C | 99% | 1013.7 hPa | 0 mm | - | 19 W/m² | - |
| 1778188892 | 23.89° C | 99% | 1013.4 hPa | 1.78 mm | - | 24 W/m² | - |
| 1778188589 | 24.44° C | 99% | 1013.1 hPa | 10.67 mm | - | 24 W/m² | - |
| 1778188284 | 24.44° C | 99% | 1013.4 hPa | 22.86 mm | - | 16 W/m² | - |
| 1778187982 | 24.44° C | 99% | 1013.3 hPa | 14.99 mm | - | 13 W/m² | - |
| 1778187679 | 24.44° C | 99% | 1013.5 hPa | 0 mm | - | 14 W/m² | - |
| 1778187375 | 24.44° C | 99% | 1013.5 hPa | 1.78 mm | - | 7 W/m² | - |
* Rain latest hour (hover to see other rain measurements)
** Current wind speed in m/s (hover to see current wind gust speed)